TimeEST,TemperatureF,Dew PointF,Humidity,Sea Level PressureIn,VisibilityMPH,Wind Direction,Wind SpeedMPH,Gust SpeedMPH,PrecipitationIn,Events,Conditions,WindDirDegrees,DateUTC
12:04 AM,37.4,33.8,87,30.01,5.0,East,3.5,-,0.00,Rain,Light Rain,80,2011-12-15 05:04:00
12:37 AM,37.4,35.6,93,29.99,2.5,NNE,4.6,-,N/A,Rain,Light Rain,30,2011-12-15 05:37:00
12:53 AM,37.9,35.1,89,29.99,2.5,NE,5.8,-,0.04,Rain,Light Rain,40,2011-12-15 05:53:00
1:04 AM,37.4,35.6,93,29.97,3.0,NE,3.5,-,0.00,,Overcast,40,2011-12-15 06:04:00
1:21 AM,37.4,35.6,93,29.97,2.5,NE,3.5,-,0.02,Rain,Light Rain,50,2011-12-15 06:21:00
1:53 AM,39.0,36.0,89,29.94,3.0,East,3.5,-,0.04,Rain,Light Rain,80,2011-12-15 06:53:00
2:53 AM,44.1,39.9,85,29.89,10.0,South,8.1,-,0.01,,Overcast,190,2011-12-15 07:53:00
3:53 AM,46.0,42.1,86,29.85,4.0,SSW,13.8,21.9,0.05,Rain,Light Rain,200,2011-12-15 08:53:00
4:23 AM,44.6,42.8,93,29.81,3.0,SSW,13.8,-,0.01,Rain,Light Rain,200,2011-12-15 09:23:00
4:53 AM,46.0,42.1,86,29.81,9.0,South,12.7,-,0.01,,Overcast,190,2011-12-15 09:53:00
5:40 AM,46.4,42.8,87,29.77,10.0,SSW,15.0,-,0.00,Rain,Light Rain,200,2011-12-15 10:40:00
5:53 AM,48.0,43.0,83,29.77,9.0,South,15.0,21.9,0.00,,Overcast,190,2011-12-15 10:53:00
6:53 AM,48.9,43.0,80,29.74,10.0,South,15.0,21.9,0.00,,Overcast,190,2011-12-15 11:53:00
7:12 AM,50.0,42.8,76,29.72,10.0,SSW,18.4,26.5,N/A,,Overcast,200,2011-12-15 12:12:00
7:53 AM,50.0,45.0,83,29.71,4.0,SSW,21.9,32.2,0.01,Rain,Light Rain,200,2011-12-15 12:53:00
8:53 AM,51.8,44.6,76,29.67,10.0,SSW,21.9,29.9,N/A,,Overcast,200,2011-12-15 13:53:00
9:53 AM,51.8,44.6,76,29.65,10.0,SSW,15.0,27.6,N/A,,Overcast,210,2011-12-15 14:53:00
10:53 AM,51.1,44.1,77,29.62,10.0,SSW,21.9,33.4,0.00,,Overcast,200,2011-12-15 15:53:00
11:53 AM,50.0,45.0,83,29.59,5.0,SSW,17.3,27.6,0.01,Rain,Light Rain,200,2011-12-15 16:53:00
12:53 PM,50.0,46.0,86,29.55,10.0,SSW,23.0,33.4,0.00,,Overcast,210,2011-12-15 17:53:00
1:53 PM,50.0,46.0,86,29.54,9.0,SW,21.9,26.5,0.00,,Overcast,220,2011-12-15 18:53:00
2:53 PM,52.0,46.9,83,29.49,10.0,SSW,20.7,33.4,0.00,,Overcast,210,2011-12-15 19:53:00
3:53 PM,52.0,46.9,83,29.49,10.0,SSW,18.4,27.6,N/A,,Overcast,200,2011-12-15 20:53:00
4:53 PM,52.0,48.0,86,29.50,6.0,SSW,18.4,33.4,0.04,Rain,Light Rain,200,2011-12-15 21:53:00
5:53 PM,52.0,48.0,86,29.50,10.0,SW,17.3,25.3,0.05,Rain,Light Rain,220,2011-12-15 22:53:00
6:49 PM,51.8,48.2,88,29.49,10.0,SW,15.0,21.9,0.01,,Overcast,220,2011-12-15 23:49:00
6:53 PM,51.8,48.2,88,29.50,10.0,SSW,13.8,21.9,N/A,,Overcast,210,2011-12-15 23:53:00
7:53 PM,52.0,48.0,86,29.50,10.0,SSW,15.0,24.2,0.00,,Overcast,210,2011-12-16 00:53:00
8:53 PM,52.0,48.0,86,29.52,10.0,SW,17.3,25.3,N/A,,Overcast,230,2011-12-16 01:53:00
9:05 PM,51.8,46.4,82,29.51,10.0,SW,18.4,27.6,N/A,,Overcast,230,2011-12-16 02:05:00
9:53 PM,51.1,46.0,83,29.53,10.0,SW,16.1,28.8,N/A,,Overcast,230,2011-12-16 02:53:00
10:53 PM,50.0,44.1,80,29.53,10.0,SW,17.3,26.5,0.00,,Overcast,230,2011-12-16 03:53:00
11:53 PM,48.9,42.1,77,29.54,10.0,SW,13.8,21.9,0.00,,Overcast,230,2011-12-16 04:53:00